| time (UTC) | temp F | wind direction | speed knots | gust knots | rain 1hr in | rain 24hr in | rain mn in | humidity % | barometer mb |
| 20260504234602 | 64 | 360 | 1.7 | 3.5 | 0.00 | 0.00 | 0.00 | 43 | 1004.9 |
| 20260504233050 | 65 | 360 | 0.9 | 3.5 | 0.00 | 0.00 | 0.00 | 42 | 1004.9 |
| 20260504231551 | 66 | 360 | 0.9 | 7.0 | 0.00 | 0.00 | 0.00 | 39 | 1004.7 |
| 20260504230052 | 67 | 360 | 1.7 | 8.7 | 0.00 | 0.00 | 0.00 | 39 | 1004.4 |
| 20260504224552 | 67 | 360 | 2.6 | 7.0 | 0.00 | 0.00 | 0.00 | 38 | 1004.2 |
| 20260504223050 | 68 | 259 | 3.5 | 9.6 | 0.00 | 0.00 | 0.00 | 37 | 1004.2 |
| 20260504221548 | 69 | 258 | 2.6 | 8.7 | 0.00 | 0.00 | 0.00 | 37 | 1004.1 |
| 20260504220055 | 69 | 298 | 3.5 | 12.2 | 0.00 | 0.00 | 0.00 | 36 | 1004.1 |
| 20260504214546 | 70 | 244 | 4.3 | 10.4 | 0.00 | 0.00 | 0.00 | 36 | 1004.1 |
| 20260504213106 | 69 | 272 | 5.2 | 9.6 | 0.00 | 0.00 | 0.00 | 37 | 1004.2 |
| 20260504211545 | 69 | 240 | 4.3 | 12.2 | 0.00 | 0.00 | 0.00 | 37 | 1004.1 |
| 20260504210044 | 70 | 261 | 3.5 | 16.5 | 0.00 | 0.00 | 0.00 | 35 | 1004.1 |
| 20260504204545 | 70 | 338 | 3.5 | 13.9 | 0.00 | 0.00 | 0.00 | 37 | 1003.9 |
| 20260504203041 | 68 | 232 | 6.1 | 18.2 | 0.00 | 0.00 | 0.00 | 38 | 1004.1 |
| 20260504201540 | 68 | 234 | 4.3 | 13.9 | 0.00 | 0.00 | 0.00 | 40 | 1004.0 |
| 20260504200039 | 69 | 258 | 3.5 | 13.9 | 0.00 | 0.00 | 0.00 | 37 | 1004.0 |
| 20260504194538 | 69 | 326 | 4.3 | 13.0 | 0.00 | 0.00 | 0.00 | 38 | 1004.1 |
| 20260504193052 | 69 | 315 | 3.5 | 15.6 | 0.00 | 0.00 | 0.00 | 38 | 1004.3 |
| 20260504191536 | 68 | 255 | 5.2 | 13.0 | 0.00 | 0.00 | 0.00 | 38 | 1004.2 |
| 20260504190035 | 68 | 257 | 3.5 | 16.5 | 0.00 | 0.00 | 0.00 | 40 | 1004.4 |
| 20260504184533 | 66 | 227 | 5.2 | 13.9 | 0.00 | 0.00 | 0.00 | 38 | 1004.5 |
| 20260504183038 | 67 | 360 | 4.3 | 13.0 | 0.00 | 0.00 | 0.00 | 37 | 1004.5 |
| 20260504181534 | 69 | 332 | 4.3 | 16.5 | 0.00 | 0.00 | 0.00 | 40 | 1004.3 |
| 20260504180034 | 68 | 227 | 4.3 | 14.8 | 0.00 | 0.00 | 0.00 | 39 | 1004.2 |
| 20260504174529 | 68 | 296 | 7.0 | 13.9 | 0.00 | 0.00 | 0.00 | 37 | 1004.4 |
| 20260504173030 | 66 | 326 | 5.2 | 13.0 | 0.00 | 0.00 | 0.00 | 40 | 1004.6 |
| 20260504171528 | 67 | 222 | 5.2 | 13.9 | 0.00 | 0.00 | 0.00 | 36 | 1004.6 |
| 20260504100118 | 41 | 360 | 1.7 | 4.3 | 0.00 | 0.00 | 0.00 | 73 | 1008.0 |
| 20260504081600 | 40 | 360 | 0.9 | 4.3 | 0.00 | 0.00 | 0.00 | 71 | 1007.8 |
| 20260504044542 | 40 | 360 | 2.6 | 7.0 | 0.00 | 0.00 | 0.00 | 70 | 1007.6 |
| 20260504043046 | 40 | 360 | 3.5 | 7.8 | 0.00 | 0.00 | 0.00 | 69 | 1007.5 |
| 20260504041536 | 40 | 360 | 3.5 | 7.8 | 0.00 | 0.00 | 0.00 | 68 | 1007.4 |
| 20260504040034 | 41 | 360 | 2.6 | 6.1 | 0.00 | 0.00 | 0.00 | 67 | 1007.3 |
| 20260504034531 | 41 | 360 | 2.6 | 5.2 | 0.00 | 0.00 | 0.00 | 66 | 1007.2 |
| 20260504033031 | 41 | 360 | 2.6 | 5.2 | 0.00 | 0.00 | 0.00 | 67 | 1007.2 |
| 20260504031530 | 41 | 360 | 0.9 | 7.0 | 0.00 | 0.00 | 0.00 | 67 | 1007.1 |
| 20260504030030 | 42 | 360 | 0.9 | 3.5 | 0.00 | 0.01 | 0.00 | 66 | 1007.0 |
| 20260504024530 | 42 | 360 | 0.9 | 4.3 | 0.00 | 0.01 | 0.00 | 65 | 1007.0 |
| 20260504023029 | 41 | 360 | 0.9 | 4.3 | 0.00 | 0.01 | 0.00 | 69 | 1007.0 |
| 20260504021534 | 39 | 289 | 0.0 | 2.6 | 0.00 | 0.01 | 0.00 | 72 | 1007.0 |
| 20260504020034 | 39 | 290 | 0.9 | 2.6 | 0.00 | 0.02 | 0.00 | 72 | 1006.9 |
| 20260504014534 | 40 | 299 | 0.0 | 1.7 | 0.00 | 0.02 | 0.00 | 71 | 1007.0 |
| 20260504013023 | 41 | 360 | 0.0 | 1.7 | 0.00 | 0.02 | 0.00 | 68 | 1007.0 |
| 20260504011522 | 42 | 360 | 0.0 | 2.6 | 0.00 | 0.02 | 0.00 | 66 | 1006.9 |
| 20260504010021 | 43 | 360 | 0.0 | 2.6 | 0.00 | 0.05 | 0.00 | 63 | 1006.7 |
| 20260504004521 | 43 | 360 | 0.9 | 4.3 | 0.00 | 0.05 | 0.00 | 62 | 1006.4 |
| 20260504003020 | 44 | 360 | 0.9 | 5.2 | 0.00 | 0.05 | 0.00 | 61 | 1006.2 |
| 20260504001520 | 44 | 360 | 1.7 | 5.2 | 0.00 | 0.05 | 0.00 | 60 | 1006.1 |
| 20260504000019 | 45 | 360 | 2.6 | 5.2 | 0.00 | 0.08 | 0.00 | 59 | 1005.9 |